Location: Buttermere
(51.3333°N, 1.5167°W)
Time: 12:02:29
(UTC+00:00)

Cosmos 1842 - Pass Details

Date: 18 September 2020
Orbit: 521 x 536 km, 82.5° (Epoch: 24 October)

Event Time Altitude Azimuth Distance (km) Brightness Sun altitude
Rises 19:00:14 0° 347° (NNW) 2,665 7.2 -8.2°
Reaches altitude 10° 19:02:23 10° 344° (NNW) 1,771 6.3 -8.5°
Maximum altitude 19:06:14 65° 263° (W) 582 3.7 -9.1°
Drops below altitude 10° 19:10:03 10° 182° (S) 1,758 5.8 -9.7°
Sets 19:12:12 0° 179° (S) 2,643 6.6 -10.0°
